Time,TemperatureF,DewpointF,PressureIn,WindDirection,WindDirectionDegrees,WindSpeedMPH,WindSpeedGustMPH,Humidity,HourlyPrecipIn,Conditions,Clouds,dailyrainin,SoftwareType,DateUTC
2013-03-19 00:01:00,65.0,28.0,29.93,WSW,245,9.0,11.0,25,0.00,,,0.00,,2013-03-19 07:01:00,
2013-03-19 00:11:00,65.0,28.0,29.93,WSW,245,9.0,11.0,25,0.00,,,0.00,,2013-03-19 07:11:00,
2013-03-19 00:21:00,64.0,27.0,29.93,West,262,1.0,13.0,25,0.00,,,0.00,,2013-03-19 07:21:00,
2013-03-19 00:32:00,64.0,27.0,29.93,West,265,8.0,13.0,25,0.00,,,0.00,,2013-03-19 07:32:00,
2013-03-19 00:42:00,64.0,27.0,29.93,West,265,8.0,13.0,25,0.00,,,0.00,,2013-03-19 07:42:00,
2013-03-19 00:52:00,64.0,27.0,29.92,WSW,248,9.0,16.0,25,0.00,,,0.00,,2013-03-19 07:52:00,
2013-03-19 01:02:00,64.0,26.0,29.91,WSW,256,6.0,16.0,24,0.00,,,0.00,,2013-03-19 08:02:00,
2013-03-19 01:12:00,64.0,26.0,29.91,WSW,256,6.0,16.0,24,0.00,,,0.00,,2013-03-19 08:12:00,
2013-03-19 01:21:00,64.0,27.0,29.91,SSW,211,5.0,15.0,25,0.00,,,0.00,,2013-03-19 08:21:00,
2013-03-19 01:31:00,64.0,27.0,29.92,SW,217,9.0,13.0,25,0.00,,,0.00,,2013-03-19 08:31:00,
2013-03-19 01:41:00,64.0,27.0,29.92,SW,217,9.0,13.0,25,0.00,,,0.00,,2013-03-19 08:41:00,
2013-03-19 01:52:00,64.0,27.0,29.91,South,186,10.0,14.0,25,0.00,,,0.00,,2013-03-19 08:52:00,
2013-03-19 02:12:00,64.0,27.0,29.92,WSW,238,3.0,10.0,25,0.00,,,0.00,,2013-03-19 09:12:00,
2013-03-19 02:22:00,64.0,27.0,29.92,WSW,252,3.0,6.0,25,0.00,,,0.00,,2013-03-19 09:22:00,
2013-03-19 02:32:00,64.0,28.0,29.92,SW,229,14.0,20.0,26,0.00,,,0.00,,2013-03-19 09:32:00,
2013-03-19 02:42:00,64.0,28.0,29.92,SW,229,14.0,20.0,26,0.00,,,0.00,,2013-03-19 09:42:00,
2013-03-19 02:53:00,62.0,29.0,29.94,WSW,247,20.0,27.0,28,0.00,,,0.00,,2013-03-19 09:53:00,
2013-03-19 03:03:00,63.0,28.0,29.94,WSW,241,19.0,30.0,26,0.00,,,0.00,,2013-03-19 10:03:00,
2013-03-19 03:12:00,63.0,28.0,29.94,WSW,241,19.0,30.0,26,0.00,,,0.00,,2013-03-19 10:12:00,
2013-03-19 03:22:00,62.0,28.0,29.95,SW,225,19.0,27.0,27,0.00,,,0.00,,2013-03-19 10:22:00,
2013-03-19 03:32:00,62.0,28.0,29.94,SW,230,11.0,22.0,27,0.00,,,0.00,,2013-03-19 10:32:00,
2013-03-19 03:42:00,62.0,28.0,29.94,SW,230,11.0,22.0,27,0.00,,,0.00,,2013-03-19 10:42:00,
2013-03-19 03:53:00,63.0,28.0,29.94,SW,229,14.0,28.0,26,0.00,,,0.00,,2013-03-19 10:53:00,
2013-03-19 04:02:00,62.0,27.0,29.94,SSW,205,16.0,22.0,26,0.00,,,0.00,,2013-03-19 11:02:00,
2013-03-19 04:11:00,62.0,27.0,29.94,SSW,205,16.0,22.0,26,0.00,,,0.00,,2013-03-19 11:11:00,
2013-03-19 04:22:00,61.0,27.0,29.93,SSW,196,24.0,29.0,27,0.00,,,0.00,,2013-03-19 11:22:00,
2013-03-19 04:32:00,61.0,27.0,29.94,WSW,253,19.0,30.0,27,0.00,,,0.00,,2013-03-19 11:32:00,
2013-03-19 04:42:00,61.0,27.0,29.94,WSW,253,19.0,30.0,27,0.00,,,0.00,,2013-03-19 11:42:00,
2013-03-19 04:52:00,61.0,25.0,29.93,SW,226,22.0,29.0,25,0.00,,,0.00,,2013-03-19 11:52:00,
2013-03-19 05:02:00,61.0,25.0,29.94,SW,232,16.0,27.0,25,0.00,,,0.00,,2013-03-19 12:02:00,
2013-03-19 05:12:00,61.0,25.0,29.94,SW,232,16.0,27.0,25,0.00,,,0.00,,2013-03-19 12:12:00,
2013-03-19 05:22:00,62.0,27.0,29.95,SW,229,15.0,21.0,26,0.00,,,0.00,,2013-03-19 12:22:00,
2013-03-19 05:32:00,61.0,26.0,29.95,SW,232,15.0,22.0,26,0.00,,,0.00,,2013-03-19 12:32:00,
2013-03-19 05:42:00,61.0,26.0,29.95,SW,232,15.0,22.0,26,0.00,,,0.00,,2013-03-19 12:42:00,
2013-03-19 05:52:00,61.0,27.0,29.96,WSW,238,17.0,26.0,27,0.00,,,0.00,,2013-03-19 12:52:00,
2013-03-19 06:02:00,60.0,27.0,29.96,WSW,240,18.0,24.0,28,0.00,,,0.00,,2013-03-19 13:02:00,
2013-03-19 06:11:00,60.0,27.0,29.96,WSW,240,18.0,24.0,28,0.00,,,0.00,,2013-03-19 13:11:00,
2013-03-19 06:22:00,60.0,26.0,29.96,SW,227,18.0,23.0,27,0.00,,,0.00,,2013-03-19 13:22:00,
2013-03-19 06:31:00,60.0,27.0,29.97,SW,217,14.0,22.0,28,0.00,,,0.00,,2013-03-19 13:31:00,
2013-03-19 06:42:00,60.0,27.0,29.97,SW,217,14.0,22.0,28,0.00,,,0.00,,2013-03-19 13:42:00,
2013-03-19 06:52:00,60.0,27.0,29.98,SW,218,15.0,19.0,28,0.00,,,0.00,,2013-03-19 13:52:00,
2013-03-19 07:01:00,60.0,27.0,29.98,SW,223,10.0,19.0,28,0.00,,,0.00,,2013-03-19 14:01:00,
2013-03-19 07:11:00,60.0,27.0,29.98,SW,223,10.0,19.0,28,0.00,,,0.00,,2013-03-19 14:11:00,
2013-03-19 07:22:00,59.0,26.0,29.98,SSW,213,11.0,17.0,28,0.00,,,0.00,,2013-03-19 14:22:00,
2013-03-19 07:31:00,59.0,27.0,29.98,SW,225,14.0,16.0,29,0.00,,,0.00,,2013-03-19 14:31:00,
2013-03-19 07:41:00,59.0,27.0,29.98,SW,225,14.0,16.0,29,0.00,,,0.00,,2013-03-19 14:41:00,
2013-03-19 07:52:00,60.0,28.0,30.00,SW,222,13.0,18.0,29,0.00,,,0.00,,2013-03-19 14:52:00,
2013-03-19 08:02:00,61.0,28.0,30.00,WSW,240,10.0,18.0,28,0.00,,,0.00,,2013-03-19 15:02:00,
2013-03-19 08:12:00,61.0,28.0,30.00,WSW,240,10.0,18.0,28,0.00,,,0.00,,2013-03-19 15:12:00,
2013-03-19 08:22:00,62.0,29.0,30.01,WSW,251,5.0,11.0,28,0.00,,,0.00,,2013-03-19 15:22:00,
2013-03-19 08:33:00,63.0,29.0,30.02,WSW,244,8.0,13.0,27,0.00,,,0.00,,2013-03-19 15:33:00,
2013-03-19 08:43:00,63.0,29.0,30.02,WSW,244,8.0,13.0,27,0.00,,,0.00,,2013-03-19 15:43:00,
2013-03-19 08:53:00,65.0,30.0,30.03,SW,228,7.0,13.0,27,0.00,,,0.00,,2013-03-19 15:53:00,
2013-03-19 09:03:00,66.0,30.0,30.03,WSW,249,5.0,14.0,26,0.00,,,0.00,,2013-03-19 16:03:00,
2013-03-19 09:12:00,66.0,30.0,30.03,WSW,249,5.0,14.0,26,0.00,,,0.00,,2013-03-19 16:12:00,
2013-03-19 09:23:00,68.0,31.0,30.04,South,188,6.0,12.0,25,0.00,,,0.00,,2013-03-19 16:23:00,
2013-03-19 09:33:00,68.0,30.0,30.04,SSW,210,3.0,10.0,24,0.00,,,0.00,,2013-03-19 16:33:00,
2013-03-19 09:43:00,68.0,30.0,30.04,SSW,210,3.0,10.0,24,0.00,,,0.00,,2013-03-19 16:43:00,
2013-03-19 09:54:00,70.0,30.0,30.04,WNW,292,2.0,6.0,23,0.00,,,0.00,,2013-03-19 16:54:00,
2013-03-19 10:02:00,71.0,32.0,30.04,WSW,248,1.0,7.0,24,0.00,,,0.00,,2013-03-19 17:02:00,
2013-03-19 10:13:00,73.0,32.0,30.04,WNW,293,2.0,6.0,22,0.00,,,0.00,,2013-03-19 17:13:00,
2013-03-19 10:23:00,73.0,32.0,30.04,WNW,293,2.0,6.0,22,0.00,,,0.00,,2013-03-19 17:23:00,
2013-03-19 10:34:00,74.0,33.0,30.04,North,360,3.0,5.0,22,0.00,,,0.00,,2013-03-19 17:34:00,
2013-03-19 10:43:00,74.0,33.0,30.04,North,360,3.0,5.0,22,0.00,,,0.00,,2013-03-19 17:43:00,
2013-03-19 10:53:00,76.0,32.0,30.05,North,349,2.0,6.0,20,0.00,,,0.00,,2013-03-19 17:53:00,
2013-03-19 11:02:00,76.0,32.0,30.05,North,10,1.0,7.0,20,0.00,,,0.00,,2013-03-19 18:02:00,
2013-03-19 11:13:00,76.0,32.0,30.05,North,10,1.0,7.0,20,0.00,,,0.00,,2013-03-19 18:13:00,
2013-03-19 11:22:00,76.0,32.0,30.05,NNE,23,4.0,7.0,20,0.00,,,0.00,,2013-03-19 18:22:00,
2013-03-19 11:33:00,76.0,31.0,30.04,ESE,103,2.0,7.0,19,0.00,,,0.00,,2013-03-19 18:33:00,
2013-03-19 11:42:00,76.0,31.0,30.04,ESE,103,2.0,7.0,19,0.00,,,0.00,,2013-03-19 18:42:00,
2013-03-19 11:53:00,76.0,31.0,30.04,ESE,108,0.0,9.0,19,0.00,,,0.00,,2013-03-19 18:53:00,
2013-03-19 12:02:00,77.0,32.0,30.04,ESE,113,3.0,10.0,19,0.00,,,0.00,,2013-03-19 19:02:00,
2013-03-19 12:11:00,77.0,32.0,30.04,ESE,113,3.0,10.0,19,0.00,,,0.00,,2013-03-19 19:11:00,
2013-03-19 12:21:00,77.0,32.0,30.04,ESE,111,3.0,5.0,19,0.00,,,0.00,,2013-03-19 19:21:00,
2013-03-19 12:32:00,79.0,32.0,30.04,East,82,4.0,9.0,18,0.00,,,0.00,,2013-03-19 19:32:00,
2013-03-19 12:53:00,78.0,30.0,30.04,NNE,20,4.0,10.0,17,0.00,,,0.00,,2013-03-19 19:53:00,
2013-03-19 13:02:00,79.0,29.0,30.03,NE,45,3.0,12.0,16,0.00,,,0.00,,2013-03-19 20:02:00,
2013-03-19 13:11:00,79.0,29.0,30.03,ENE,76,3.0,11.0,16,0.00,,,0.00,,2013-03-19 20:11:00,
2013-03-19 13:22:00,79.0,29.0,30.03,ENE,76,3.0,11.0,16,0.00,,,0.00,,2013-03-19 20:22:00,
2013-03-19 13:32:00,79.0,29.0,30.03,ESE,109,6.0,12.0,16,0.00,,,0.00,,2013-03-19 20:32:00,
2013-03-19 13:42:00,79.0,29.0,30.03,ESE,109,6.0,12.0,16,0.00,,,0.00,,2013-03-19 20:42:00,
2013-03-19 13:52:00,80.0,28.0,30.02,East,101,6.0,13.0,15,0.00,,,0.00,,2013-03-19 20:52:00,
2013-03-19 14:01:00,81.0,29.0,30.01,ENE,61,4.0,11.0,15,0.00,,,0.00,,2013-03-19 21:01:00,
2013-03-19 14:11:00,80.0,30.0,30.00,SE,127,4.0,9.0,16,0.00,,,0.00,,2013-03-19 21:11:00,
2013-03-19 14:22:00,80.0,30.0,30.00,SE,127,4.0,9.0,16,0.00,,,0.00,,2013-03-19 21:22:00,
2013-03-19 14:32:00,81.0,31.0,30.00,North,9,0.0,11.0,16,0.00,,,0.00,,2013-03-19 21:32:00,
2013-03-19 14:53:00,81.0,29.0,29.99,South,179,0.0,11.0,15,0.00,,,0.00,,2013-03-19 21:53:00,
2013-03-19 15:02:00,81.0,31.0,29.99,SE,137,3.0,15.0,16,0.00,,,0.00,,2013-03-19 22:02:00,
2013-03-19 15:22:00,81.0,31.0,29.98,SSW,205,1.0,10.0,16,0.00,,,0.00,,2013-03-19 22:22:00,
2013-03-19 15:32:00,82.0,30.0,29.97,ENE,75,2.0,12.0,15,0.00,,,0.00,,2013-03-19 22:32:00,
2013-03-19 15:42:00,82.0,30.0,29.96,ESE,107,6.0,16.0,15,0.00,,,0.00,,2013-03-19 22:42:00,
2013-03-19 15:53:00,82.0,30.0,29.96,ESE,107,6.0,16.0,15,0.00,,,0.00,,2013-03-19 22:53:00,
2013-03-19 16:02:00,82.0,30.0,29.96,ESE,104,6.0,9.0,15,0.00,,,0.00,,2013-03-19 23:02:00,
2013-03-19 16:21:00,83.0,31.0,29.96,East,100,9.0,15.0,15,0.00,,,0.00,,2013-03-19 23:21:00,
2013-03-19 16:32:00,83.0,31.0,29.96,SSE,167,11.0,17.0,15,0.00,,,0.00,,2013-03-19 23:32:00,
2013-03-19 16:52:00,83.0,32.0,29.95,SE,133,8.0,16.0,16,0.00,,,0.00,,2013-03-19 23:52:00,
2013-03-19 17:02:00,82.0,31.0,29.95,South,183,9.0,17.0,16,0.00,,,0.00,,2013-03-20 00:02:00,
2013-03-19 17:22:00,81.0,31.0,29.95,SSE,153,10.0,13.0,16,0.00,,,0.00,,2013-03-20 00:22:00,
2013-03-19 17:32:00,82.0,31.0,29.95,SSW,192,8.0,13.0,16,0.00,,,0.00,,2013-03-20 00:32:00,
2013-03-19 17:52:00,79.0,30.0,29.95,South,178,11.0,18.0,17,0.00,,,0.00,,2013-03-20 00:52:00,
2013-03-19 18:01:00,79.0,30.0,29.95,South,169,11.0,19.0,17,0.00,,,0.00,,2013-03-20 01:01:00,
2013-03-19 18:11:00,79.0,30.0,29.95,South,169,11.0,19.0,17,0.00,,,0.00,,2013-03-20 01:11:00,
2013-03-19 18:22:00,78.0,31.0,29.95,South,183,11.0,20.0,18,0.00,,,0.00,,2013-03-20 01:22:00,
2013-03-19 18:32:00,77.0,30.0,29.95,South,170,7.0,15.0,18,0.00,,,0.00,,2013-03-20 01:32:00,
2013-03-19 18:42:00,77.0,30.0,29.95,South,170,7.0,15.0,18,0.00,,,0.00,,2013-03-20 01:42:00,
2013-03-19 18:52:00,76.0,31.0,29.95,South,187,11.0,14.0,19,0.00,,,0.00,,2013-03-20 01:52:00,
2013-03-19 19:02:00,76.0,31.0,29.95,SSW,196,12.0,16.0,19,0.00,,,0.00,,2013-03-20 02:02:00,
2013-03-19 19:11:00,76.0,31.0,29.95,SSW,196,12.0,16.0,19,0.00,,,0.00,,2013-03-20 02:11:00,
2013-03-19 19:21:00,75.0,35.0,29.96,SW,225,12.0,16.0,23,0.00,,,0.00,,2013-03-20 02:21:00,
2013-03-19 19:31:00,74.0,34.0,29.96,WSW,238,10.0,17.0,23,0.00,,,0.00,,2013-03-20 02:31:00,
2013-03-19 19:42:00,74.0,34.0,29.96,WSW,238,10.0,17.0,23,0.00,,,0.00,,2013-03-20 02:42:00,
2013-03-19 19:52:00,71.0,32.0,29.97,SW,229,12.0,15.0,24,0.00,,,0.00,,2013-03-20 02:52:00,
2013-03-19 20:01:00,70.0,33.0,29.98,SW,224,10.0,15.0,25,0.00,,,0.00,,2013-03-20 03:01:00,
2013-03-19 20:11:00,69.0,34.0,29.98,SSW,201,11.0,21.0,27,0.00,,,0.00,,2013-03-20 03:11:00,
2013-03-19 20:22:00,69.0,34.0,29.98,SSW,201,11.0,21.0,27,0.00,,,0.00,,2013-03-20 03:22:00,
2013-03-19 20:32:00,69.0,34.0,29.98,SW,225,13.0,21.0,27,0.00,,,0.00,,2013-03-20 03:32:00,
2013-03-19 20:42:00,69.0,34.0,29.98,SW,225,13.0,21.0,27,0.00,,,0.00,,2013-03-20 03:42:00,
2013-03-19 20:53:00,68.0,34.0,29.98,WSW,237,16.0,22.0,28,0.00,,,0.00,,2013-03-20 03:53:00,
2013-03-19 21:02:00,68.0,34.0,29.99,SW,233,15.0,21.0,28,0.00,,,0.00,,2013-03-20 04:02:00,
2013-03-19 21:12:00,68.0,34.0,29.99,SW,233,15.0,21.0,28,0.00,,,0.00,,2013-03-20 04:12:00,
2013-03-19 21:22:00,67.0,33.0,29.99,WSW,248,14.0,19.0,28,0.00,,,0.00,,2013-03-20 04:22:00,
2013-03-19 21:32:00,67.0,32.0,30.00,SW,220,13.0,19.0,27,0.00,,,0.00,,2013-03-20 04:32:00,
2013-03-19 21:42:00,67.0,32.0,30.00,SW,220,13.0,19.0,27,0.00,,,0.00,,2013-03-20 04:42:00,
2013-03-19 21:52:00,67.0,32.0,30.00,SW,231,10.0,19.0,27,0.00,,,0.00,,2013-03-20 04:52:00,
2013-03-19 22:02:00,67.0,32.0,30.00,SW,225,14.0,19.0,27,0.00,,,0.00,,2013-03-20 05:02:00,
2013-03-19 22:12:00,67.0,32.0,30.00,SW,226,10.0,15.0,27,0.00,,,0.00,,2013-03-20 05:12:00,
2013-03-19 22:22:00,67.0,32.0,30.00,SW,226,10.0,15.0,27,0.00,,,0.00,,2013-03-20 05:22:00,
2013-03-19 22:32:00,67.0,32.0,30.01,SW,222,15.0,22.0,27,0.00,,,0.00,,2013-03-20 05:32:00,
2013-03-19 22:42:00,67.0,32.0,30.01,SW,222,15.0,22.0,27,0.00,,,0.00,,2013-03-20 05:42:00,
2013-03-19 22:52:00,67.0,31.0,30.00,SW,236,15.0,22.0,26,0.00,,,0.00,,2013-03-20 05:52:00,
2013-03-19 23:02:00,67.0,31.0,30.00,SW,217,15.0,21.0,26,0.00,,,0.00,,2013-03-20 06:02:00,
2013-03-19 23:12:00,67.0,31.0,30.00,SW,217,15.0,21.0,26,0.00,,,0.00,,2013-03-20 06:12:00,
2013-03-19 23:21:00,67.0,32.0,30.00,SW,219,15.0,21.0,27,0.00,,,0.00,,2013-03-20 06:21:00,
2013-03-19 23:31:00,67.0,32.0,30.00,SSW,209,15.0,20.0,27,0.00,,,0.00,,2013-03-20 06:31:00,
2013-03-19 23:42:00,67.0,32.0,30.00,SSW,209,15.0,20.0,27,0.00,,,0.00,,2013-03-20 06:42:00,
2013-03-19 23:52:00,67.0,33.0,30.00,WSW,242,9.0,17.0,28,0.00,,,0.00,,2013-03-20 06:52:00,